Flag for U.S.A. Weather past 2 weeks in Bristol, Tennessee, U.S.A.

Now
73 °F

Overcast.


Feels Like: 72 °F
Forecast: 69 / 83 °F
Wind: No wind

Location: Abingdon-Southwest Abingdon

Current Time: Aug 31, 2014 at 2:58:02 AM

Latest Report: Aug 31, 2014 at 2:35 AM


Visibility: 10 mi

Pressure: 30.18 "Hg

Humidity: 85%

Dew point: 68 °F

Location of BristolLocation

Historic Weather in Bristol — Graph

°F

Bristol temperature yesterday

Maximum temperature yesterday: 89 °F (at 3:55 PM)
Minimum temperature yesterday: 68 °F (at 5:35 AM)
Average temperature yesterday: 77 °F

Past Weeks' High & Low Weather Summary

 TemperatureHumidityPressure
High89 °F (Aug 30, 3:55 PM)100% (Aug 18, 7:35 AM)30.25 "Hg (Aug 18, 7:35 AM)
Low57 °F (Aug 27, 5:35 AM)35% (Aug 27, 4:35 PM)29.89 "Hg (Aug 18, 5:15 PM)
Average73 °F80%30.11 "Hg
* Reported Aug 16 1:15 AM — Aug 31 1:35 AM, Bristol, Weather by CustomWeather, © 2014

Note: Actual official high and low records may vary slightly from our data, if they occured in-between our weather recording intervals... More about our weather records

Advertising

Bristol weather history for previous 24 hours

 ConditionsComfort  
Time TempWeatherWind HumidityBarometerVisibility
1:35 AM
Aug 31
72 °FMostly cloudy.No wind86%30.19 "Hg10 mi
1:15 AM73 °FPassing clouds.No wind85%30.19 "Hg10 mi
12:55 AM72 °FPassing clouds.No wind87%30.19 "Hg10 mi
12:35 AM72 °FClear.No wind86%30.19 "Hg10 mi
12:15 AM73 °FClear.No wind82%30.18 "Hg10 mi
11:55 PM
Aug 30
73 °FClear.No wind82%30.19 "Hg10 mi
11:35 PM74 °FClear.No wind80%30.19 "Hg10 mi
11:15 PM74 °FPassing clouds.No wind83%30.20 "Hg10 mi
10:55 PM76 °FMostly cloudy.No wind76%30.20 "Hg10 mi
10:35 PM75 °FPartly cloudy.No wind77%30.20 "Hg10 mi
10:15 PM76 °FPassing clouds.No wind75%30.20 "Hg10 mi
9:55 PM75 °FPassing clouds.No wind77%30.20 "Hg10 mi
9:35 PM77 °FPassing clouds.No wind68%30.19 "Hg10 mi
9:15 PM78 °FClear.No wind67%30.18 "Hg10 mi
8:55 PM78 °FSunny.No wind65%30.18 "Hg10 mi
8:35 PM80 °FScattered clouds.No wind62%30.17 "Hg10 mi
8:15 PM80 °FPartly sunny.5 mph61%30.16 "Hg10 mi
7:55 PM80 °FScattered clouds.3 mph63%30.16 "Hg10 mi
7:35 PM81 °FSunny.3 mph63%30.16 "Hg10 mi
7:15 PM82 °FSunny.No wind59%30.15 "Hg10 mi
6:55 PM83 °FScattered clouds.3 mph57%30.15 "Hg10 mi
6:35 PM83 °FBroken clouds.No wind57%30.15 "Hg10 mi
6:15 PM81 °FOvercast.No wind65%30.15 "Hg10 mi
5:55 PM83 °FOvercast.No wind57%30.15 "Hg10 mi
5:35 PM85 °FOvercast.3 mph46%30.15 "Hg10 mi
5:15 PM87 °FScattered clouds.3 mph42%30.15 "Hg10 mi
4:55 PM88 °FScattered clouds.3 mph39%30.16 "Hg10 mi
4:35 PM88 °FBroken clouds.No wind39%30.16 "Hg10 mi
4:15 PM89 °FPartly sunny.No wind36%30.16 "Hg10 mi
3:55 PM89 °FBroken clouds.No wind37%30.17 "Hg10 mi
3:35 PM87 °FPartly sunny.No wind40%30.18 "Hg10 mi
3:15 PM88 °FScattered clouds.3 mph38%30.18 "Hg10 mi
2:55 PM88 °FScattered clouds.5 mph36%30.19 "Hg10 mi
2:15 PM88 °FSunny.6 mph39%30.21 "Hg10 mi
1:35 PM86 °FSunny.3 mph45%30.22 "Hg10 mi
12:55 PM86 °FSunny.3 mph47%30.23 "Hg10 mi
12:35 PM85 °FSunny.3 mph50%30.23 "Hg10 mi
12:15 PM84 °FSunny.3 mph50%30.24 "Hg10 mi
11:55 AM85 °FSunny.5 mph54%30.24 "Hg10 mi
11:35 AM83 °FSunny.5 mph54%30.24 "Hg10 mi
11:15 AM82 °FSunny.5 mph57%30.25 "Hg10 mi
10:55 AM81 °FSunny.No wind59%30.25 "Hg10 mi
10:35 AM80 °FSunny.3 mph64%30.25 "Hg10 mi
10:15 AM78 °FSunny.6 mph71%30.25 "Hg10 mi
9:55 AM77 °FSunny.7 mph77%30.25 "Hg10 mi
9:35 AM75 °FSunny.7 mph79%30.25 "Hg10 mi
9:15 AM74 °FSunny.7 mph84%30.25 "Hg10 mi
8:55 AM73 °FSunny.6 mph87%30.25 "Hg7 mi
8:35 AM71 °FFog.7 mph90%30.25 "Hg5 mi
7:55 AM69 °FFog.No wind95%30.25 "Hg5 mi
7:35 AM68 °FFog.5 mph95%30.25 "Hg5 mi
7:15 AM68 °FFog.3 mph94%30.24 "Hg5 mi
6:55 AM69 °FClear.No wind93%30.24 "Hg7 mi
6:35 AM69 °FClear.3 mph92%30.24 "Hg7 mi
6:15 AM69 °FClear.7 mph95%30.24 "Hg7 mi
5:55 AM68 °FClear.7 mph97%30.23 "Hg7 mi
5:35 AM68 °FClear.7 mph96%30.23 "Hg7 mi
5:15 AM68 °FPassing clouds.No wind96%30.23 "Hg7 mi
4:55 AM69 °FPassing clouds.No wind93%30.23 "Hg7 mi
4:35 AM70 °FPassing clouds.No wind91%30.23 "Hg10 mi
4:15 AM70 °FClear.No wind92%30.22 "Hg10 mi
3:55 AM70 °FPassing clouds.No wind91%30.22 "Hg10 mi
3:35 AM69 °FPassing clouds.No wind96%30.22 "Hg10 mi
3:20 AM69 °FClear.No wind96%30.22 "Hg7 mi
2:55 AM69 °FClear.No wind96%30.21 "Hg7 mi
2:35 AM69 °FClear.No wind94%30.22 "Hg10 mi
2:15 AM69 °FClear.No wind94%30.22 "Hg10 mi
Weather by CustomWeather, © 2014

See weather overviewHow to use our weather pages